RH
77 96 103 100 101 100 100 101 100 97 97 101 104 104 103 101 99 95 90 89 89 88 85 78 67 65 71 78 85 91 98 95 88 84 81 81 83 87 92 94 95 92 92 92 90 87 82 79 75 72 72 73 74 76 79 84 88 93 97 101 104 101 97 91 87 83 79 75 72 70 68 67 66 64 61 58 55 52 51 49 49 50 49 48 48 53 58 58
73 91 103 103 101 101 100 100 100 101 99 99 102 105 106 105 104 101 98 97 98 100 99 93 79 65 58 56 56 60 68 68 65 66 67 68 69 70 74 77 80 82 83 84 83 81 78 75 73 73 74 74 74 75 78 81 84 88 89 91 93 92 91 87 82 77 73 70 67 64 61 58 54 52 49 45 42 40 41 41 44 46 48 49 50 52 53 51
69 85 102 103 100 101 102 102 101 100 100 101 100 101 103 104 103 101 101 101 100 101 100 101 98 92 84 76 67 59 56 57 57 58 59 61 64 65 66 68 70 72 74 75 74 73 72 70 68 68 69 71 73 76 81 82 81 82 80 80 79 79 81 79 73 68 63 60 59 59 58 55 48 44 43 42 41 42 44 46 47 49 51 52 50 48 46 45
65 74 95 103 98 97 98 99 102 103 102 101 99 103 107 104 103 101 100 102 100 100 100 100 101 101 100 97 93 85 80 79 77 75 70 66 64 63 62 61 62 62 63 63 63 63 62 61 59 57 56 57 59 62 68 71 71 72 71 70 67 65 64 61 58 55 51 48 48 49 52 51 45 42 43 43 45 47 48 50 51 53 55 54 53 52 52 54
64 63 80 98 101 96 94 90 90 96 103 105 103 107 106 94 89 86 87 96 102 103 102 101 100 100 100 101 100 99 97 95 92 90 87 82 80 78 75 72 68 65 63 61 59 57 56 55 53 51 50 49 50 50 51 52 53 54 53 51 50 49 48 46 45 43 41 39 39 40 42 42 40 40 41 42 44 48 52 55 59 62 65 68 70 71 73 75
63 58 63 82 99 101 97 92 86 82 87 94 97 96 91 83 82 76 69 73 82 91 96 99 102 102 104 103 103 103 102 101 99 97 95 93 93 91 89 88 86 83 80 78 75 72 71 70 68 66 63 60 58 56 56 54 53 53 51 49 46 44 43 42 41 41 42 45 46 47 47 47 47 48 49 52 58 64 69 73 76 80 83 86 88 91 92 93
60 56 55 62 82 99 102 99 94 88 83 80 80 79 77 82 92 92 82 73 69 71 76 83 88 90 91 90 89 89 90 93 94 95 96 96 96 94 90 86 82 78 75 75 73 71 71 70 70 70 69 67 63 60 59 57 54 54 52 49 46 45 46 49 53 58 64 69 73 74 75 75 75 76 78 83 87 89 92 94 94 95 96 97 98 100 100 99
58 54 52 51 59 79 98 104 100 97 96 91 86 82 81 85 95 102 101 97 93 88 87 87 87 85 81 76 73 73 74 76 72 71 72 72 73 74 73 71 70 70 69 68 67 66 66 65 64 64 65 63 62 61 59 59 59 59 59 60 61 64 69 73 78 83 87 89 91 93 95 95 96 97 97 99 101 100 100 102 101 100 101 101 101 101 101 101
58 53 51 50 49 55 75 96 105 102 99 100 99 96 94 92 94 99 102 104 103 100 99 99 98 97 94 90 87 86 87 86 80 78 78 77 78 79 82 84 86 88 89 88 87 87 87 86 86 85 86 84 83 83 82 83 85 85 85 87 88 90 92 94 96 97 98 98 99 100 101 102 102 102 101 102 104 103 102 104 104 104 105 104 104 105 104 106
58 54 51 50 49 48 53 69 91 105 104 101 100 100 101 100 98 96 97 101 104 104 102 101 101 101 100 100 99 98 99 99 98 98 97 97 97 97 99 100 99 100 100 100 100 100 99 99 99 98 98 99 98 97 96 95 95 94 94 94 92 91 90 91 91 91 92 93 95 96 97 98 98 98 100 102 102 102 101 103 104 105 106 105 105 106 105 107
59 57 54 51 50 49 48 49 62 83 100 105 103 100 99 100 101 100 99 98 102 104 104 101 99 100 101 101 101 100 100 100 100 100 100 100 101 101 101 99 98 98 98 99 100 100 100 99 98 96 95 95 94 92 90 89 89 89 89 90 90 89 90 90 90 90 90 92 93 93 94 96 96 96 98 100 99 99 99 100 101 102 103 102 102 103 103 103
63 60 57 54 51 50 49 48 48 55 72 90 101 105 103 101 99 100 101 100 101 102 103 100 96 96 97 98 100 99 99 100 101 100 100 101 100 101 101 101 100 99 98 97 97 96 96 95 93 93 92 92 92 92 92 93 95 96 96 98 99 99 100 100 100 98 97 98 96 94 94 94 95 95 96 97 97 97 97 97 96 95 95 94 95 96 98 101
65 61 57 54 52 51 49 49 49 48 49 58 74 90 101 105 104 102 101 100 100 100 100 100 98 96 96 96 96 94 94 96 98 99 100 100 100 99 99 99 99 97 94 91 89 86 84 82 80 80 78 78 79 79 81 83 85 87 88 90 92 93 95 96 96 95 94 94 93 92 92 92 92 92 90 89 87 86 86 84 82 79 77 76 77 78 80 84
63 60 56 53 50 50 50 49 49 50 49 48 52 61 73 86 96 102 105 104 105 103 102 102 102 101 101 101 100 99 99 99 99 100 100 100 99 98 98 97 97 96 94 92 90 87 85 83 82 81 79 78 78 77 79 80 81 83 82 83 85 86 87 88 87 87 87 86 85 83 80 78 76 72 69 66 64 61 59 57 55 53 51 50 51 53 56 61
63 59 55 52 51 50 50 50 50 50 51 51 51 51 54 61 69 76 83 89 94 97 99 101 99 99 98 96 95 94 94 92 91 90 89 88 86 86 85 85 85 85 85 84 82 81 80 78 77 77 76 75 75 75 75 75 74 75 73 72 73 71 70 69 67 66 64 61 59 56 53 52 51 49 48 48 47 47 45 43 41 39 37 37 37 40 45 52
61 58 55 52 52 51 50 49 49 50 51 52 53 54 54 53 53 54 58 63 67 69 71 73 72 71 70 68 67 67 66 65 63 63 62 61 61 60 59 59 59 58 57 56 55 54 53 52 50 49 48 48 47 47 48 48 47 47 46 46 46 46 46 45 44 43 42 41 41 41 42 43 45 47 49 50 52 52 49 44 40 39 39 40 42 46 51 59
57 54 53 53 52 50 50 49 49 51 53 53 53 52 52 53 54 55 56 55 54 53 53 54 54 54 54 53 53 53 52 51 50 49 48 47 47 46 45 44 43 42 41 39 37 36 35 34 32 32 31 31 32 32 33 35 35 35 36 37 38 38 39 39 40 40 42 43 44 46 49 51 55 57 59 61 62 61 57 50 44 43 46 51 56 61 68 75
55 53 52 52 51 50 50 51 52 54 55 57 58 59 61 62 62 60 58 56 54 55 55 57 58 58 58 57 56 54 53 52 51 50 49 47 45 44 42 40 39 37 35 34 32 30 29 29 28 29 29 30 31 32 33 35 37 38 40 41 43 44 45 47 47 50 53 55 56 58 60 63 66 68 70 72 75 75 71 64 59 59 63 70 75 80 87 92
54 52 51 50 50 50 51 52 55 58 62 66 69 70 70 69 67 65 64 63 63 65 66 67 66 64 63 61 59 57 56 55 53 51 50 48 45 43 41 39 37 35 34 33 31 30 29 29 28 28 28 29 30 31 33 35 38 40 42 45 48 51 54 55 56 60 63 65 68 68 68 70 75 79 84 87 89 91 90 88 86 86 88 89 89 90 92 93
53 51 50 49 49 50 52 55 60 65 69 73 75 76 75 72 71 71 72 71 71 71 71 69 67 64 62 60 58 56 55 53 51 49 47 46 44 42 40 38 37 35 35 33 31 30 28 27 25 23 22 22 23 24 26 29 33 37 40 45 49 53 58 59 61 65 67 70 74 77 77 78 83 90 96 99 99 98 98 95 92 90 89 87 85 84 84 83
53 51 48 47 49 51 55 59 65 70 74 76 77 77 76 76 75 76 76 74 73 72 70 67 64 62 59 58 57 55 54 52 50 48 47 45 43 42 39 37 36 34 33 31 28 25 21 19 17 15 14 14 15 16 18 20 23 28 33 38 44 49 55 59 63 66 68 72 76 80 83 86 90 96 100 102 102 99 96 93 90 89 88 88 89 89 89 90
52 50 48 48 50 53 57 62 67 72 76 79 81 82 83 82 77 74 72 70 70 68 65 63 61 61 61 59 58 55 53 52 50 48 47 45 43 41 37 34 32 28 25 21 18 15 12 11 11 11 11 12 13 13 15 17 18 22 25 29 35 40 47 54 60 66 69 73 77 81 85 89 94 101 104 106 106 102 98 97 97 98 98 97 99 99 99 99
50 48 48 50 53 58 62 67 72 76 80 84 86 86 83 78 73 71 70 67 66 64 64 65 66 67 65 62 59 56 54 52 50 47 45 43 41 37 32 26 21 17 13 11 10 9 9 10 10 11 12 13 14 15 17 18 20 22 24 28 31 35 40 47 54 61 68 73 77 80 83 87 96 105 109 109 108 103 100 101 101 100 101 101 101 101 101 101
51 53 56 59 63 67 69 72 75 78 81 81 80 77 74 72 71 71 70 68 69 71 73 74 72 68 65 62 58 55 53 50 48 45 41 36 31 25 19 14 11 9 8 8 9 10 10 11 11 12 13 14 16 17 19 21 23 25 27 30 33 36 40 45 52 59 67 74 78 81 82 88 99 108 109 106 105 104 101 102 103 101 101 101 100 101 101 101
58 61 64 66 67 67 68 70 74 77 77 75 75 74 72 71 72 74 77 80 83 83 81 77 71 67 63 60 56 53 51 47 42 35 28 22 16 12 10 8 8 9 9 10 11 12 12 12 13 14 15 16 17 19 22 24 27 28 31 34 37 41 44 49 54 59 68 76 82 85 84 87 98 108 109 106 107 109 105 105 106 104 104 104 103 103 103 104
60 63 64 65 66 68 71 74 78 80 79 79 79 77 78 80 85 90 92 91 88 84 79 74 68 64 60 56 53 49 43 35 26 19 14 11 10 9 9 9 10 11 11 12 12 13 14 14 15 17 18 20 21 23 26 28 32 34 36 40 44 48 52 57 62 68 76 83 88 91 90 88 93 101 103 103 104 104 100 99 100 99 100 103 103 105 106 106
62 65 68 71 75 78 81 84 87 87 88 89 90 91 96 98 98 97 93 88 83 78 73 69 65 61 57 51 44 34 25 18 13 11 11 11 11 11 12 13 14 14 14 14 15 15 17 18 18 20 22 24 27 29 32 35 39 41 44 47 51 54 57 61 66 70 75 79 83 85 85 83 85 89 92 93 93 91 89 90 91 92 94 97 98 97 95 93
73 77 81 85 88 90 93 96 98 98 99 100 102 103 101 98 96 93 88 84 78 72 68 65 62 57 49 37 25 17 14 13 13 14 14 15 16 16 17 17 17 17 17 17 18 18 18 19 20 22 24 26 29 32 35 38 42 45 48 51 53 56 59 61 65 68 70 73 75 76 77 76 76 78 80 79 76 74 72 72 72 72 73 72 70 68 65 63
84 89 94 97 99 100 100 100 100 100 100 102 102 97 92 92 93 90 84 78 72 67 65 63 55 44 30 20 16 16 17 17 17 17 17 17 17 18 18 18 18 19 19 19 20 20 19 20 21 22 24 25 26 29 31 33 35 38 40 41 43 45 47 49 52 53 55 56 57 57 58 57 55 55 55 52 50 49 49 49 50 50 50 50 50 49 49 49
92 97 101 101 99 97 94 94 96 96 98 102 100 93 89 90 88 84 77 70 67 66 62 51 37 24 19 19 20 20 19 19 18 18 18 17 18 18 18 18 18 18 18 18 18 18 18 18 19 20 20 21 22 23 24 25 26 28 29 30 31 32 33 36 37 39 40 41 42 43 43 44 43 42 42 42 42 43 44 46 47 47 47 48 48 48 49 50
97 99 99 96 95 94 93 95 97 98 103 106 103 96 91 86 82 79 72 67 66 59 45 31 21 19 22 22 21 20 19 20 20 20 20 20 19 19 18 17 17 17 17 17 17 17 18 19 20 21 22 23 24 25 27 28 30 31 32 32 33 35 36 38 40 41 42 42 43 45 45 45 45 44 44 44 44 45 47 48 47 48 48 49 49 50 51 52
98 97 94 95 98 99 99 100 101 103 108 108 103 96 89 84 79 73 69 67 58 41 26 20 21 22 22 20 20 20 20 20 19 19 18 17 17 17 16 16 16 17 17 18 18 18 20 23 25 26 29 31 32 33 34 35 37 38 38 38 38 39 40 41 43 43 44 43 44 45 45 45 45 44 44 44 45 47 48 48 49 49 50 50 51 52 52 53
100 98 98 101 102 101 100 101 102 106 109 107 100 93 86 81 75 71 67 56 39 25 22 24 24 22 21 21 21 20 19 19 18 17 16 16 17 17 18 19 21 23 25 27 29 28 28 32 34 36 38 40 39 39 39 39 39 39 39 38 38 38 39 40 41 42 42 43 44 45 45 46 46 46 45 46 48 49 49 49 50 50 50 51 51 51 51 51
101 101 102 102 100 100 100 101 105 109 108 102 96 90 82 76 72 67 54 36 26 25 26 25 23 22 22 21 20 18 17 17 16 17 18 19 21 23 25 27 30 33 35 37 40 40 38 38 40 40 40 40 39 38 38 37 37 37 37 37 37 37 37 38 39 40 41 43 45 46 47 47 48 47 47 48 49 49 49 49 49 49 50 51 51 51 51 52
102 102 101 101 100 101 100 103 108 107 103 98 92 83 75 72 67 52 35 25 26 26 24 23 23 22 21 19 18 18 17 18 19 21 23 25 28 31 34 37 39 41 41 42 42 41 40 38 37 37 36 36 36 35 35 36 36 36 37 38 39 40 40 40 40 41 42 43 44 45 46 47 47 48 49 50 50 49 50 50 50 51 52 52 53 54 55 56
101 101 101 101 100 100 101 105 106 103 98 92 83 75 73 66 50 33 25 26 26 24 23 23 21 20 19 18 18 19 20 22 25 27 30 33 36 38 41 43 43 42 41 40 39 38 37 35 33 33 34 34 34 35 36 37 38 38 39 41 42 43 44 43 43 43 42 43 43 44 46 46 47 48 49 51 51 52 52 53 53 54 54 55 56 57 57 58
100 100 101 100 100 101 104 106 105 99 91 82 76 73 65 48 31 26 27 26 24 23 23 20 19 19 19 19 21 24 26 29 31 35 37 39 41 41 41 41 40 39 38 37 37 37 37 36 34 33 35 36 37 39 41 42 43 44 45 46 47 47 48 47 47 46 45 46 46 46 48 48 50 51 52 52 53 54 54 54 55 55 55 56 57 58 58 59
101 100 100 101 103 105 107 106 100 89 80 76 73 62 44 30 26 27 26 24 24 23 20 19 20 21 23 25 28 30 33 36 38 40 41 41 42 40 39 39 38 38 37 36 36 36 37 38 38 38 41 43 44 45 47 47 48 48 49 49 49 49 49 49 48 47 47 48 48 49 50 51 52 54 53 53 54 55 55 55 55 56 57 58 60 61 62 63
100 100 101 105 106 107 105 98 86 78 76 72 58 40 28 27 28 26 25 24 22 20 20 22 24 26 29 31 34 37 40 42 43 42 41 40 40 39 39 38 37 37 37 37 38 38 40 42 42 43 46 48 49 50 50 50 49 49 49 49 49 49 49 50 49 48 48 48 48 48 50 51 52 53 53 54 55 56 57 58 59 61 62 63 63 63 63 61
101 102 105 106 105 102 94 83 77 76 70 53 36 28 28 28 26 25 24 22 20 22 24 27 29 31 34 36 39 41 41 42 41 40 40 40 39 39 39 38 38 38 39 40 41 43 44 46 48 49 50 51 51 51 50 49 49 49 50 50 50 50 50 50 49 49 49 49 48 48 49 51 53 54 55 56 57 58 58 59 59 58 57 55 52 48 45 41
104 104 104 103 98 90 80 76 76 67 49 33 28 28 28 26 25 24 22 21 24 28 30 32 34 36 39 41 42 41 40 39 39 39 39 39 39 40 40 41 42 42 44 44 46 48 49 51 53 53 53 54 53 52 51 51 50 50 50 50 50 49 48 49 49 50 51 52 52 51 52 54 54 54 53 52 51 50 48 46 43 40 36 33 29 27 25 23
104 102 99 95 87 79 76 76 65 46 32 28 29 29 27 25 24 22 23 27 30 32 34 37 40 42 43 43 41 40 40 39 39 40 40 41 41 42 43 44 45 47 48 49 51 52 53 54 54 53 54 55 55 54 54 52 51 50 49 49 49 50 50 51 52 52 54 55 54 52 51 49 46 43 41 38 36 33 30 28 25 23 21 20 20 19 19 19
99 97 93 85 78 77 76 65 45 31 29 29 28 27 26 24 23 25 30 33 34 36 39 42 45 45 44 42 41 41 41 41 42 41 42 44 45 46 47 48 49 51 53 54 55 55 55 55 55 55 56 56 55 54 53 51 49 49 49 50 51 51 51 51 51 51 51 50 46 42 39 35 31 28 27 25 22 21 19 18 18 18 18 18 18 19 19 18
94 90 84 79 79 77 65 44 31 29 30 29 28 26 24 25 29 32 34 36 39 42 44 46 46 44 42 41 41 40 41 42 43 44 45 47 47 49 50 52 53 55 56 57 57 56 56 56 56 56 56 55 54 53 53 52 51 50 51 51 51 51 49 48 46 43 40 36 32 29 26 23 20 19 19 18 17 17 18 18 18 18 18 18 18 17 17 16
89 84 80 81 78 65 44 31 30 31 29 28 27 26 27 31 35 36 37 40 44 47 47 46 44 42 41 40 40 40 42 43 45 47 48 49 51 52 54 55 56 57 57 58 58 58 58 56 54 53 53 53 52 52 53 54 54 53 53 52 51 48 45 41 37 32 28 25 22 20 19 17 16 16 17 17 17 18 17 17 17 16 16 16 16 16 16 16
84 82 82 80 65 45 32 30 31 30 28 27 27 29 33 36 36 39 42 45 48 49 47 44 43 41 41 41 42 43 45 47 49 49 50 52 54 55 56 57 58 58 57 58 59 59 58 57 55 53 53 53 52 52 52 52 52 51 50 47 44 38 33 28 25 22 20 18 17 16 16 16 16 17 17 17 17 16 16 16 15 15 16 16 17 17 18 17
84 83 80 66 45 32 31 31 31 29 28 28 31 35 37 38 40 43 48 50 49 48 46 43 42 42 42 44 46 48 50 51 51 53 55 56 56 56 58 59 58 58 59 60 60 60 60 59 59 57 56 56 54 53 51 49 47 45 41 36 30 25 22 19 18 17 16 16 16 16 17 17 17 17 17 16 16 16 16 16 16 17 18 18 19 19 18 18
84 81 67 46 33 31 32 31 30 29 30 33 36 38 39 42 46 49 51 51 48 45 44 43 42 43 44 47 49 51 53 53 55 58 59 59 59 60 59 58 58 60 62 62 62 62 62 62 61 60 59 57 54 51 48 45 40 34 28 23 19 17 17 16 15 15 15 15 16 17 17 17 17 16 16 16 16 17 17 18 18 18 19 19 19 19 18 18
82 70 48 33 31 33 32 31 31 31 34 37 39 41 44 47 51 52 52 50 47 43 42 42 43 45 47 50 52 53 54 56 59 61 61 61 62 60 58 58 61 63 65 65 64 63 63 63 63 62 60 56 52 47 42 36 29 23 18 16 16 15 15 14 14 14 15 16 17 17 17 17 16 16 17 17 18 18 19 19 19 19 19 19 19 18 17 17
72 51 35 32 33 33 31 32 33 35 39 41 42 46 49 52 54 53 50 48 45 42 41 43 46 48 51 52 53 54 56 59 60 61 62 62 60 58 59 62 65 66 66 65 64 63 64 64 64 61 57 52 46 40 33 25 19 15 15 14 14 14 13 14 14 14 16 17 17 17 17 18 18 18 19 19 19 19 20 19 19 20 19 19 18 18 17 16
55 37 32 34 33 33 34 35 37 40 42 43 47 51 53 55 54 52 49 46 44 43 45 47 50 52 53 53 55 58 61 62 62 63 62 60 57 59 63 66 68 68 66 64 64 65 66 64 61 58 53 46 39 31 23 17 14 14 14 14 13 13 13 14 14 15 17 18 18 18 19 19 19 19 19 19 19 20 20 20 19 19 19 18 17 16 15 14
39 33 34 34 33 35 36 38 40 42 44 48 52 54 56 55 52 50 47 45 45 46 48 51 53 53 53 55 59 63 65 65 65 63 60 58 60 64 66 68 68 66 65 65 66 66 65 62 57 52 46 38 29 21 15 13 13 14 13 12 12 13 14 15 15 16 18 18 19 19 19 19 19 19 19 19 20 20 20 19 18 18 17 16 15 14 13 12
Wind_Speed
38 41 44 45 43 40 38 37 36 35 35 35 35 34 34 33 33 34 34 34 33 34 36 38 39 40 40 42 43 43 43 42 43 44 44 46 46 47 48 49 49 50 51 51 52 53 53 54 54 54 54 55 55 55 55 56 56 56 57 58 60 61 60 61 61 62 63 65 65 65 65 66 67 68 70 71 72 73 74 74 74 76 77 77 77 76 76 76
36 38 41 44 45 43 41 39 38 37 37 36 35 35 35 34 34 35 36 36 36 37 38 40 41 41 41 41 42 42 43 44 45 45 46 47 48 48 50 51 52 52 53 54 54 55 55 55 56 56 56 57 57 57 57 58 58 58 59 61 62 62 63 64 64 65 66 67 68 68 68 68 69 71 72 73 73 73 72 72 73 74 75 75 75 76 78 79
34 36 38 40 43 44 44 42 40 39 38 37 36 35 35 35 35 36 38 39 40 41 42 42 43 43 43 43 44 44 44 45 45 46 47 48 48 49 50 52 53 54 55 56 56 57 57 57 58 58 58 59 59 59 60 60 60 61 62 64 65 65 65 67 68 68 69 70 71 71 71 71 71 72 72 72 72 71 70 71 73 74 75 77 78 79 81 82
32 35 37 38 40 42 44 44 43 41 38 37 36 35 35 35 35 36 38 41 42 44 44 45 46 45 44 44 46 47 47 47 47 47 48 48 49 50 51 52 53 54 56 57 58 58 59 59 60 60 61 61 62 62 63 64 64 65 66 66 67 67 68 69 70 71 71 72 72 73 73 73 73 72 72 72 72 72 74 75 77 78 80 82 83 84 85 85
30 32 35 38 39 40 41 44 44 43 41 39 38 37 37 37 37 37 38 40 42 44 45 46 48 48 46 45 46 48 48 48 48 49 49 49 50 51 52 53 54 54 55 56 57 58 59 59 60 60 61 62 63 63 64 65 66 67 68 68 69 69 70 71 71 72 72 72 72 72 72 73 73 73 74 74 75 77 78 80 81 82 84 85 86 87 87 88
28 30 32 35 39 40 40 40 42 43 44 42 41 40 39 38 38 39 38 39 41 43 44 46 47 48 48 48 48 49 49 49 50 51 51 52 53 54 54 55 56 57 58 58 59 59 60 61 62 62 63 64 64 65 66 67 68 68 70 70 69 70 71 72 72 73 73 73 73 73 74 75 76 77 77 78 80 81 82 83 84 85 86 87 88 88 89 90
25 27 30 32 37 41 41 40 39 40 42 42 42 42 41 39 39 38 38 38 39 41 42 44 45 47 49 49 49 50 50 51 52 52 53 54 55 57 57 58 59 60 61 61 62 62 63 64 65 65 66 67 67 68 68 69 69 70 71 71 71 72 72 73 74 74 75 75 76 77 78 79 80 81 81 82 83 84 85 86 86 86 87 88 89 89 90 91
23 25 27 30 33 37 41 41 40 39 39 41 42 42 42 41 40 39 39 39 40 40 40 41 42 44 46 48 49 49 50 52 53 54 54 55 56 57 58 59 60 61 61 62 63 64 64 65 66 66 67 68 68 69 70 70 70 71 72 73 73 73 74 75 76 77 78 79 80 81 82 83 84 84 84 85 86 87 88 89 89 90 90 91 92 93 94 95
22 23 24 27 30 33 37 41 42 41 40 40 41 42 42 43 43 43 43 43 44 44 44 44 44 45 46 47 48 49 50 51 52 53 54 55 56 57 58 59 60 60 61 62 63 64 65 66 67 67 68 69 70 71 71 71 72 73 74 74 75 76 76 77 79 80 82 83 84 84 85 86 87 88 88 89 91 91 92 93 94 95 96 97 98 99 100 101
20 21 22 24 27 30 33 37 41 43 43 43 42 42 43 44 45 46 47 48 49 50 51 51 51 51 52 52 52 53 54 54 54 55 56 57 58 59 60 61 62 63 64 65 66 67 68 69 70 71 71 72 73 74 75 76 76 78 79 79 80 81 82 83 84 86 87 88 89 89 90 91 92 92 93 95 96 97 97 98 99 100 101 102 103 103 104 105
19 20 21 23 24 27 30 33 36 39 43 44 44 44 44 44 45 46 48 50 52 53 54 55 56 57 57 58 58 59 60 60 60 61 61 62 63 65 66 67 68 69 70 71 72 73 74 75 76 76 77 78 79 80 81 81 82 83 84 85 86 87 88 89 90 91 92 93 94 94 95 95 96 97 98 98 99 100 101 101 102 102 103 104 105 105 106 107
18 19 20 21 23 25 28 30 33 35 38 41 44 46 46 46 46 47 47 49 51 53 55 56 57 58 59 61 62 63 64 65 65 66 67 68 68 70 71 73 74 75 76 77 78 79 80 81 82 82 83 84 85 86 86 87 87 88 89 90 90 91 92 93 94 95 95 96 97 98 98 98 99 100 100 100 101 102 102 103 103 103 104 105 106 106 107 108
17 18 19 21 22 24 25 27 29 32 34 37 40 43 46 48 49 49 50 50 51 53 54 56 57 58 59 60 62 63 65 66 67 68 69 71 72 73 75 76 77 79 80 81 82 83 84 85 86 87 88 88 89 90 90 90 91 91 92 93 93 94 95 96 97 98 98 99 100 100 100 100 100 101 101 102 102 102 103 103 104 104 105 105 106 107 108 108
17 18 19 20 21 22 24 25 27 29 31 34 36 39 42 45 47 49 51 52 53 53 54 55 55 56 57 59 60 62 63 64 66 67 69 70 71 73 75 77 78 79 81 83 84 85 86 87 88 88 89 90 90 91 91 92 92 93 94 94 95 96 97 98 99 100 100 101 101 101 100 99 99 99 99 99 99 99 99 100 101 101 102 103 104 106 106 107
17 18 18 19 20 21 22 24 25 27 29 31 33 36 38 40 43 45 47 49 50 51 53 54 54 55 56 58 59 60 62 63 64 65 67 68 70 71 73 76 77 79 81 83 85 86 88 89 90 91 91 92 93 93 93 93 93 95 95 95 96 96 97 97 98 99 99 98 98 97 96 94 93 92 92 92 91 91 92 92 93 95 97 98 100 101 103 104
17 17 18 19 20 21 21 23 23 25 27 29 30 32 35 37 39 40 42 44 45 47 48 49 51 52 53 54 55 57 58 59 61 62 64 66 67 69 71 74 76 78 80 82 84 86 87 88 89 90 90 91 91 90 90 89 90 92 92 91 91 92 92 92 93 93 92 91 90 89 88 86 85 85 85 84 84 84 85 86 87 88 90 91 92 94 95 95
17 17 18 19 20 20 21 21 22 23 24 26 28 30 31 32 34 35 37 39 41 42 43 44 45 46 47 49 50 51 53 55 57 59 61 63 65 67 69 71 73 76 78 79 81 82 83 84 84 84 85 85 84 84 83 83 84 85 85 85 85 85 85 86 86 86 86 85 84 83 82 81 80 80 79 79 79 79 80 81 82 83 84 84 85 85 86 86
16 17 17 18 19 19 20 20 21 22 23 24 25 26 26 27 29 31 33 34 35 36 37 38 39 41 42 45 46 48 50 52 54 56 59 61 63 65 67 69 71 74 75 77 79 79 79 80 80 80 80 80 79 79 79 79 80 80 81 81 81 81 81 82 82 81 81 81 81 80 79 78 77 77 76 76 76 76 77 77 78 78 79 79 80 80 81 81
16 16 16 17 17 18 18 19 20 20 21 21 22 22 23 24 26 27 28 29 30 31 32 34 36 38 41 43 45 48 50 52 54 56 59 61 63 65 67 68 70 72 74 75 76 76 76 76 76 76 76 76 76 76 76 76 77 78 78 79 79 79 79 80 80 79 79 79 78 78 77 76 75 75 74 74 75 75 75 75 76 76 76 77 78 79 80 81
15 15 15 15 15 16 16 17 17 18 18 19 19 20 21 22 23 24 26 27 28 30 32 34 37 39 42 44 46 49 51 53 56 57 60 62 64 65 67 68 69 70 71 72 73 73 73 72 73 73 73 73 73 73 74 74 75 76 77 77 78 78 78 79 79 78 78 78 77 77 77 76 75 74 75 75 75 76 76 76 76 77 77 78 79 80 81 82
14 14 14 13 13 13 13 14 14 15 16 16 17 18 20 21 22 23 25 27 29 31 34 36 38 41 43 46 48 50 52 55 57 58 60 62 63 64 66 66 67 67 68 69 70 70 69 69 69 69 68 68 68 69 69 70 72 73 74 75 76 77 78 78 79 79 79 78 77 77 76 76 75 76 76 77 77 77 78 78 78 79 80 81 82 83 84 85
13 12 12 11 11 11 11 11 12 12 13 15 16 18 20 22 23 24 26 28 31 33 35 38 40 43 46 48 50 51 53 55 57 58 60 61 62 63 64 64 64 64 65 65 65 64 63 61 61 60 61 61 61 62 62 64 65 67 69 71 73 74 76 77 77 78 78 78 77 77 76 76 76 76 77 78 78 79 79 79 79 80 82 83 84 85 87 88
11 10 9 9 8 8 8 9 10 11 13 15 17 19 22 24 25 27 29 30 33 35 38 41 44 47 49 50 52 53 54 56 57 58 59 60 61 62 62 62 61 59 59 58 57 56 55 54 53 53 54 54 55 56 56 58 59 60 62 64 66 68 70 72 74 75 76 77 76 76 76 75 76 76 77 78 79 79 80 81 82 83 84 85 86 88 89 90
8 7 6 6 6 7 8 9 10 12 15 17 20 22 24 25 27 28 31 33 36 40 42 45 48 49 51 52 53 54 55 56 56 57 58 58 59 59 58 57 55 53 52 51 50 50 49 49 48 48 48 49 50 50 52 53 54 56 57 59 60 62 64 66 68 70 72 73 74 76 76 75 75 76 77 79 80 81 82 83 84 85 86 88 89 90 92 93
5 4 4 4 5 7 8 10 12 15 17 19 21 23 24 26 28 31 35 38 41 44 47 49 50 51 52 53 53 54 54 56 56 56 56 56 55 54 53 51 49 48 47 46 46 45 45 45 44 44 45 45 45 46 47 49 50 52 53 55 56 58 60 62 64 66 68 70 72 74 75 74 74 76 79 80 82 83 85 86 87 88 89 90 91 93 94 95
2 2 3 5 6 8 10 12 14 16 18 20 22 24 27 30 33 36 40 43 45 48 49 51 52 52 53 53 53 54 54 55 54 53 51 50 48 47 46 46 45 44 43 43 43 42 42 42 42 42 42 43 43 44 44 46 47 48 50 51 53 54 56 58 60 63 64 67 69 72 75 74 74 77 79 81 83 84 86 87 88 89 89 91 92 93 94 95
2 3 5 6 8 10 12 14 17 19 21 23 26 28 31 34 37 40 43 45 48 49 50 51 52 53 53 53 53 53 52 50 48 46 45 43 43 42 42 42 41 41 41 41 41 40 40 40 41 41 41 42 42 43 44 45 46 47 48 50 51 53 54 56 58 61 63 65 67 70 73 73 74 76 78 80 82 83 84 85 86 87 88 89 90 91 93 93
4 6 7 9 11 13 16 18 20 22 24 26 29 32 35 37 40 42 45 47 49 50 51 51 52 53 53 53 51 48 45 43 41 40 39 38 39 39 39 39 40 40 40 40 41 41 40 40 40 40 41 41 42 42 43 44 45 47 48 49 50 52 53 55 57 59 61 63 65 67 70 71 72 73 76 78 79 80 80 81 82 83 84 86 87 88 89 90
7 8 10 12 15 16 19 20 22 24 26 29 32 35 37 40 43 45 47 48 50 51 51 52 52 52 51 48 45 42 39 38 37 37 37 37 37 37 38 38 39 39 40 40 41 41 41 41 40 41 41 41 42 43 43 44 45 46 47 48 49 51 52 54 55 57 59 60 62 64 66 67 68 69 72 73 73 74 75 76 77 79 80 82 83 84 86 87
9 11 13 15 17 18 20 22 25 27 30 32 35 38 41 44 46 48 49 49 50 51 52 52 52 48 44 40 39 38 37 37 37 37 38 38 38 38 38 39 39 39 40 40 40 41 41 40 40 40 40 41 41 42 43 43 44 44 45 46 47 48 49 50 52 53 55 56 58 60 62 64 65 66 68 69 70 71 73 74 76 78 80 81 83 85 86 88
11 13 16 17 19 21 24 26 28 31 33 36 38 42 45 47 48 49 50 50 51 52 52 49 46 41 38 36 36 36 36 37 37 37 37 38 38 38 38 38 38 38 38 38 38 38 37 37 37 37 38 38 39 40 40 41 42 43 44 44 45 46 47 48 51 52 54 56 57 60 62 64 66 67 68 70 71 72 74 77 78 80 82 84 85 87 89 91
14 16 19 21 23 25 27 29 31 34 36 39 42 46 48 49 50 50 51 52 52 51 47 42 38 36 36 36 36 36 36 37 37 36 36 36 35 35 35 35 35 35 36 37 37 37 35 35 35 36 37 38 39 40 41 42 43 44 45 46 46 47 48 49 52 54 56 57 59 62 64 66 68 70 70 72 73 75 77 79 81 83 84 86 88 90 91 93
17 19 21 23 25 27 30 32 35 37 40 43 46 48 49 50 51 51 52 52 50 45 40 36 35 36 36 36 37 37 36 36 35 35 34 33 33 33 33 33 33 34 34 36 38 39 38 36 37 37 38 40 41 42 43 44 45 47 48 49 49 50 51 52 53 56 58 60 62 65 67 69 71 72 73 74 76 77 79 81 83 84 86 88 90 91 93 95
19 21 24 26 28 30 32 35 38 41 44 47 48 49 50 51 51 52 52 49 43 37 35 35 35 36 36 36 36 35 34 33 32 32 31 31 31 31 31 32 32 33 34 35 37 39 40 39 39 40 40 42 44 45 46 47 49 50 51 52 53 54 55 55 56 58 60 62 64 67 69 71 73 75 75 76 78 80 82 83 85 86 88 90 92 93 95 96
21 24 26 28 30 33 36 39 42 45 47 49 50 50 50 51 52 51 47 40 36 34 34 35 35 35 35 35 33 32 31 30 30 30 30 30 30 30 31 32 32 33 34 36 37 40 42 42 41 42 43 45 47 48 49 51 51 52 53 55 56 57 58 59 60 61 62 64 66 70 72 74 75 77 78 80 82 83 84 86 87 89 91 92 94 96 97 99
24 26 29 31 33 36 39 42 45 47 48 49 50 50 51 52 50 45 39 34 34 34 34 34 34 33 32 31 30 30 29 29 29 29 29 29 30 31 31 32 33 35 36 37 39 42 45 46 45 45 47 49 50 52 53 54 55 55 56 57 59 60 62 63 64 65 66 67 69 71 74 76 77 79 80 82 84 86 87 89 90 92 93 95 97 98 100 102
26 28 31 34 36 39 42 45 46 48 49 49 50 51 51 49 43 37 34 34 35 34 34 33 32 30 29 29 28 28 28 28 28 28 29 30 31 31 32 34 35 37 39 41 42 44 47 50 51 50 52 54 55 56 57 57 58 59 60 61 62 63 64 66 67 68 69 70 71 74 76 78 80 81 83 85 87 88 90 92 93 95 97 98 100 102 104 106
28 31 33 36 39 41 44 46 47 48 49 50 50 50 47 41 35 34 34 35 34 34 32 31 30 29 28 28 27 27 28 28 29 29 30 31 32 34 35 37 39 41 43 44 46 48 50 53 55 55 55 57 58 59 59 60 60 61 62 63 65 66 67 69 71 71 72 74 75 76 79 81 83 85 87 88 90 92 93 95 97 98 100 102 104 105 107 109
30 33 36 38 41 43 44 46 47 48 49 50 49 45 38 34 33 34 34 34 33 31 30 29 28 27 27 27 27 27 28 28 29 31 32 34 35 37 39 41 43 45 47 48 50 51 53 55 57 57 57 58 60 60 61 62 62 63 65 66 68 69 71 73 75 76 77 78 79 79 81 83 86 88 90 91 93 95 97 98 100 101 103 104 106 107 109 110
33 35 38 40 42 43 45 46 47 48 49 47 42 36 33 33 34 34 33 31 30 28 27 27 26 26 26 27 27 27 28 29 30 32 35 37 39 41 43 45 47 49 50 51 52 54 55 56 58 59 59 60 61 62 64 65 66 67 68 70 72 73 75 77 79 80 82 83 84 84 85 87 89 91 93 94 96 97 99 100 101 102 103 104 105 106 107 107
35 37 39 40 42 43 45 46 47 48 45 39 34 33 33 33 33 32 30 29 27 26 26 25 26 26 27 27 28 29 30 31 33 36 38 40 42 44 46 48 50 52 53 54 54 55 56 58 59 60 61 63 64 66 67 68 69 71 72 74 76 77 79 81 82 84 86 88 89 89 89 90 92 93 94 95 96 97 98 99 99 100 100 101 101 101 102 102
36 38 39 41 42 43 44 46 46 43 38 33 33 33 33 32 31 29 27 26 25 25 25 25 26 27 28 29 30 32 34 36 37 39 42 44 46 48 49 51 52 53 54 56 56 57 58 59 61 62 64 66 67 69 71 72 73 75 76 78 79 81 83 84 85 87 89 91 92 92 92 92 92 92 93 93 94 94 95 95 95 95 95 95 96 96 97 97
37 38 40 41 42 43 45 45 42 37 33 33 33 33 31 30 28 26 25 25 25 25 26 26 27 28 29 31 32 34 37 39 41 42 44 47 48 50 51 52 53 55 56 57 58 59 60 61 63 65 67 69 71 73 75 77 78 79 80 82 83 85 86 87 88 89 90 91 92 92 92 91 90 90 90 90 90 90 90 90 90 90 91 91 91 92 93 94
37 38 40 41 42 44 44 41 36 33 33 33 32 30 29 27 25 25 24 24 25 26 27 27 28 30 31 32 35 36 38 40 43 45 47 48 50 51 52 54 55 57 58 60 61 62 63 65 66 67 69 71 74 76 78 80 81 82 83 84 86 87 88 89 89 90 90 90 90 89 89 88 87 86 86 86 86 86 86 86 87 87 87 88 89 90 91 91
37 39 40 41 43 43 40 35 32 33 33 31 30 28 26 25 24 24 24 25 26 27 28 29 30 32 33 35 37 39 42 44 46 48 49 50 51 53 54 56 58 59 61 62 64 65 67 69 70 71 72 74 76 77 79 81 83 85 86 87 88 89 89 89 89 88 87 86 86 85 84 84 83 82 82 82 82 83 83 83 84 84 85 86 86 87 88 89
38 39 40 42 43 39 34 32 32 32 31 29 27 25 24 24 24 24 25 26 27 27 29 31 32 34 36 39 41 44 46 48 50 51 51 52 53 55 56 58 60 61 62 64 66 68 70 73 75 76 77 78 80 81 82 83 85 86 88 88 88 88 88 87 86 84 83 81 81 81 80 80 79 78 78 79 79 80 81 81 82 82 83 84 85 86 87 89
38 39 41 42 39 34 31 32 32 30 29 27 25 24 23 23 24 25 25 27 28 29 30 32 34 36 39 42 44 47 50 51 52 53 54 55 56 57 58 60 61 63 64 66 68 71 73 76 78 80 81 82 83 84 85 86 87 87 87 87 86 86 84 83 81 79 78 77 76 76 76 75 75 75 75 76 77 78 79 79 80 81 82 83 84 86 87 89
38 40 41 38 33 31 31 31 30 28 26 24 23 23 23 24 25 26 26 28 29 30 32 34 36 38 41 43 46 48 51 53 54 55 56 57 58 59 60 61 63 65 67 69 71 74 76 78 80 82 83 85 86 87 87 87 87 86 85 84 83 81 79 78 77 75 74 73 72 71 71 72 72 73 73 74 75 76 77 78 79 79 81 82 84 85 87 88
38 40 38 33 30 31 31 30 27 25 24 23 23 23 23 24 26 27 28 29 31 32 34 36 38 40 43 45 47 49 50 52 54 56 57 58 59 61 62 63 65 68 70 72 74 76 77 79 81 83 86 87 88 88 87 87 85 84 82 80 78 76 75 74 73 71 70 70 69 69 69 70 71 71 72 73 74 75 76 77 78 79 80 82 83 85 87 88
39 37 33 30 30 31 29 27 25 23 22 22 22 23 24 25 26 27 29 30 32 35 36 39 41 44 46 48 49 51 52 52 54 55 57 59 60 61 63 65 68 70 72 74 75 77 78 80 82 85 87 88 88 87 86 84 82 80 77 75 73 72 71 71 69 68 67 68 68 68 69 69 70 71 72 73 73 75 76 77 78 79 81 82 84 85 87 88
37 33 30 30 30 29 27 25 23 22 22 22 23 24 25 26 27 28 30 32 34 37 39 42 44 46 49 50 52 53 54 55 56 57 58 59 61 63 66 68 70 72 74 75 77 78 80 82 84 85 87 87 86 85 83 81 78 75 73 71 70 69 68 68 68 66 65 66 67 67 68 68 69 70 71 72 74 75 76 77 77 79 81 82 84 85 86 87
33 29 29 30 28 26 24 22 21 21 22 22 23 24 26 27 28 30 32 34 37 39 42 44 47 49 51 52 54 55 56 57 58 59 60 61 63 66 68 70 72 74 75 76 78 80 82 84 85 85 85 85 83 82 80 77 74 71 70 68 67 66 66 67 67 65 64 65 65 65 66 66 67 69 70 71 72 73 75 76 76 78 80 81 83 84 85 85
Wind_Direction
212 210 209 210 209 209 213 219 223 225 226 228 231 233 236 240 243 245 247 247 247 249 250 250 248 245 245 245 245 244 245 248 250 251 252 253 253 253 253 253 254 255 255 255 256 256 256 257 257 258 258 258 258 258 258 258 258 258 259 259 260 261 261 262 262 262 263 264 264 264 264 265 266 267 268 269 269 269 270 271 271 271 271 271 271 272 272 273
214 214 212 213 213 211 212 215 219 223 225 227 230 233 235 237 239 241 243 244 243 243 246 251 256 257 257 255 253 250 249 251 253 254 255 256 257 257 256 256 257 257 257 257 258 258 258 259 259 260 261 260 260 260 259 259 259 259 260 260 261 262 263 263 264 264 265 265 266 266 266 267 268 269 270 271 271 271 271 272 272 272 272 273 273 273 274 275
215 215 215 216 217 216 215 215 217 221 224 226 228 231 235 237 238 239 241 241 242 242 243 246 252 257 260 261 261 261 259 259 259 259 259 259 259 259 259 259 259 260 260 260 260 260 260 261 261 262 262 262 261 261 261 260 260 260 261 262 263 263 264 265 266 267 267 268 268 269 269 270 270 271 271 271 272 272 273 273 273 273 274 275 275 275 276 277
216 217 216 216 218 221 221 220 220 221 223 226 228 230 234 237 239 240 241 242 242 243 244 245 248 252 255 258 260 262 264 264 264 264 264 264 264 263 263 263 263 263 263 262 262 262 263 263 263 263 263 263 263 263 262 262 262 262 263 263 265 265 266 267 268 269 270 271 271 271 271 271 271 271 271 271 272 274 274 274 275 276 276 277 277 278 278 278
218 218 218 217 216 220 225 226 226 225 225 227 229 232 235 239 241 243 243 243 243 245 246 246 247 249 252 254 256 259 261 262 263 264 265 266 267 267 267 267 267 267 267 266 266 266 266 266 266 266 266 266 266 265 265 265 265 265 265 266 267 268 269 270 270 271 272 272 272 272 272 272 272 272 273 274 275 276 277 277 277 277 278 278 279 279 279 278
219 219 220 220 218 218 223 227 230 230 230 230 232 235 238 241 244 246 247 246 246 247 248 248 249 249 251 254 256 257 258 259 260 261 263 264 265 266 267 268 269 269 269 269 269 269 269 269 269 269 269 269 269 269 269 269 269 269 269 270 270 271 272 272 272 273 273 274 275 275 275 276 276 277 277 278 278 278 278 278 278 278 278 278 278 278 278 277
220 221 221 222 222 221 221 225 228 231 232 234 235 237 239 241 244 246 248 250 251 252 253 253 253 253 254 256 257 258 259 259 260 260 261 262 263 264 266 267 268 268 269 269 269 269 269 269 269 269 270 270 270 270 270 271 271 271 271 272 272 273 273 274 274 274 275 275 276 276 277 277 278 278 278 278 278 277 277 277 277 277 276 276 276 276 276 276
222 223 224 224 224 224 224 225 226 228 230 232 234 236 238 239 240 242 245 247 249 251 252 254 255 256 257 258 260 261 261 262 262 263 263 264 264 265 266 267 268 268 269 269 269 269 269 269 270 270 270 270 270 270 271 271 271 271 271 272 272 272 273 273 273 273 273 273 274 274 275 275 275 276 276 276 275 275 275 276 276 275 275 275 275 275 275 275
224 225 227 227 227 227 228 228 228 227 228 229 232 234 237 238 240 241 242 244 245 246 247 247 249 252 254 256 257 259 260 261 262 264 264 265 265 265 265 266 266 266 267 267 267 268 268 268 268 269 269 269 269 269 269 270 270 270 270 271 271 271 271 271 271 271 271 272 272 273 273 273 274 274 274 274 275 275 275 275 276 276 276 276 275 275 275 275
227 228 228 229 230 230 230 231 231 231 231 231 232 233 234 236 239 241 242 244 245 246 246 247 248 249 251 253 254 255 256 257 259 260 261 262 262 263 262 262 263 264 264 265 265 266 266 266 266 267 267 267 267 268 268 268 269 269 269 270 270 270 270 270 271 271 271 272 272 273 273 274 274 274 274 275 275 276 276 276 276 276 276 276 276 275 275 275
230 231 231 231 231 231 231 232 233 234 234 235 235 235 236 236 237 239 241 242 244 246 247 248 249 251 252 254 255 256 257 257 258 259 260 261 262 263 263 263 263 264 264 265 265 266 266 266 266 267 267 267 267 268 269 269 270 270 270 271 271 271 271 271 271 272 272 272 273 273 274 274 275 275 275 275 276 276 276 276 276 275 275 275 275 274 274 274
234 235 235 234 233 233 233 233 234 235 236 238 238 239 240 240 240 241 242 242 244 245 247 249 250 252 254 255 257 258 259 259 260 261 261 262 263 264 265 265 265 265 265 266 266 267 267 267 268 268 268 268 269 269 270 270 271 271 272 272 272 272 272 272 272 273 273 273 274 274 274 275 275 275 275 275 275 275 275 274 274 274 273 273 273 273 272 272
238 240 240 238 237 237 237 236 236 236 237 239 240 242 242 243 244 246 247 247 247 248 249 251 252 254 255 256 258 259 260 261 262 263 264 264 264 265 266 266 267 267 267 267 267 268 268 268 269 269 269 269 270 270 271 271 271 272 272 272 272 273 273 273 273 273 273 274 274 274 274 275 275 275 274 274 274 274 273 273 273 273 272 272 272 271 271 271
243 246 246 245 243 242 241 240 239 239 239 240 242 243 245 246 248 249 251 252 253 254 255 256 257 258 259 260 261 262 263 264 265 266 266 267 267 268 267 267 268 268 268 268 268 268 268 269 269 269 270 270 270 271 271 271 272 272 272 272 272 272 272 273 273 273 273 273 274 274 274 274 274 274 274 274 274 274 273 273 273 272 272 272 271 271 271 270
249 252 253 252 250 247 245 243 242 242 242 243 244 246 248 249 251 252 255 257 258 259 260 262 263 264 265 266 267 267 268 269 269 270 270 270 271 271 271 271 271 271 271 271 271 271 271 271 271 271 271 271 271 272 272 272 272 272 272 272 272 272 272 272 273 273 273 273 274 274 274 274 274 274 274 274 274 274 273 273 273 272 272 272 271 271 271 271
253 255 255 255 253 251 249 247 246 246 246 247 248 249 251 252 255 257 259 260 262 263 265 267 268 270 271 271 272 273 273 273 273 273 273 273 273 273 273 273 274 273 273 273 273 274 274 274 274 274 274 274 274 273 273 273 272 272 272 272 272 273 273 273 273 273 274 274 275 275 275 275 275 274 274 274 274 273 273 273 272 272 272 272 272 272 272 272
254 254 254 253 253 253 252 251 251 250 251 252 252 254 256 258 260 262 262 264 265 267 269 271 272 273 274 275 275 276 276 275 275 275 275 275 275 274 274 274 275 275 275 275 275 275 276 276 276 276 276 276 275 275 274 273 273 273 273 273 273 273 273 273 274 274 275 275 275 275 275 275 275 275 275 275 275 274 274 273 273 273 273 273 273 273 273 273
254 254 252 252 252 252 252 254 255 256 258 259 261 263 264 265 265 266 268 270 271 273 274 275 275 276 278 278 278 278 278 278 278 278 278 277 277 277 277 277 277 277 278 278 278 278 278 278 278 278 277 277 276 275 275 274 273 273 273 273 273 273 273 274 274 275 275 276 276 276 276 277 277 277 277 277 277 276 275 275 275 275 275 275 275 275 275 274
256 254 252 251 251 251 252 254 256 259 262 265 268 269 270 271 272 274 276 277 278 279 280 280 281 281 282 282 282 281 281 281 280 280 280 280 280 280 280 279 279 280 280 280 280 280 281 280 280 279 278 277 276 276 275 274 273 273 273 273 273 273 273 273 274 274 275 276 276 277 277 278 278 279 279 279 278 278 277 276 276 275 275 275 275 275 274 274
259 255 253 252 251 252 253 255 259 262 265 268 271 272 274 276 278 280 281 283 285 285 285 284 284 285 285 285 285 284 284 284 283 283 282 282 282 282 282 281 281 281 281 281 282 282 282 281 280 280 279 277 276 275 274 273 272 272 272 272 272 272 272 273 273 274 274 275 276 277 278 279 279 280 280 280 279 279 278 277 276 276 276 276 276 277 277 277
261 258 256 255 254 255 256 258 262 266 269 271 273 275 277 279 281 282 284 286 286 286 286 286 287 288 288 288 288 287 287 286 286 285 285 285 284 284 283 283 283 282 282 282 282 282 281 281 280 279 278 277 276 275 274 273 272 271 270 270 271 271 271 272 273 273 274 275 275 276 277 278 279 280 280 280 280 280 280 280 280 280 280 280 280 280 281 281
263 261 259 258 259 260 262 265 267 269 271 274 277 278 280 283 285 286 286 286 286 287 288 290 292 293 293 292 291 290 289 288 287 287 287 286 286 285 284 284 284 284 283 282 282 282 281 281 280 279 278 277 276 275 274 273 272 271 271 270 270 271 271 271 272 273 273 274 275 276 276 277 278 279 280 281 281 281 281 281 281 281 281 280 280 280 280 280
262 259 259 260 262 266 270 273 275 277 278 279 280 282 284 287 288 288 289 290 291 293 295 297 297 296 295 294 293 291 290 289 289 288 288 287 287 287 286 286 286 285 284 284 284 283 283 282 281 280 279 278 277 276 275 274 273 273 272 272 272 272 272 272 272 272 273 274 274 275 276 277 278 278 279 279 280 280 280 280 279 279 279 279 279 279 279 279
258 257 261 267 274 282 285 288 288 287 286 287 287 289 290 291 292 293 296 299 300 300 300 299 298 297 296 295 294 293 292 291 290 290 289 289 289 289 288 288 288 287 286 285 285 285 284 284 283 282 280 279 278 277 276 275 275 274 274 274 274 273 273 273 273 273 273 274 274 275 275 276 277 277 277 277 278 278 278 278 278 279 279 279 279 279 279 279
257 264 279 294 301 302 303 302 299 297 296 297 297 297 298 300 302 303 304 304 303 302 301 299 298 298 297 296 295 295 294 293 292 292 292 291 291 291 290 290 290 290 289 288 287 287 286 286 285 285 284 282 281 280 279 278 278 277 277 276 276 275 275 275 274 274 274 274 275 275 275 276 276 276 276 277 277 277 277 278 278 279 279 279 279 279 279 279
279 305 318 319 316 315 313 310 306 305 306 306 306 307 308 309 308 307 305 304 303 302 301 300 299 299 298 298 297 296 296 295 294 294 294 293 293 293 293 293 293 292 292 291 291 290 290 290 290 289 289 288 287 285 284 283 282 282 281 280 279 279 278 278 277 276 276 276 276 276 277 277 277 276 277 277 277 277 278 279 279 279 280 280 280 279 279 279
339 335 329 325 322 319 317 314 312 312 312 311 312 312 311 310 308 307 306 306 304 302 301 301 301 300 300 300 299 298 298 297 296 296 296 296 295 296 296 296 296 296 296 295 295 294 294 294 294 293 292 292 291 290 289 288 287 286 285 284 283 282 282 281 280 279 278 278 277 277 278 278 278 277 277 278 278 279 279 280 280 280 280 280 280 280 280 280
345 337 331 326 322 320 318 316 315 315 313 313 313 312 311 310 310 309 308 306 304 303 303 303 303 303 302 302 301 301 300 300 299 299 299 299 299 299 299 299 300 300 300 300 299 298 298 297 297 297 296 295 294 293 292 290 289 288 287 287 286 285 284 283 282 282 281 280 280 280 280 280 280 279 279 279 280 280 281 281 282 282 281 281 281 281 281 281
338 333 329 324 321 319 317 316 314 314 314 314 314 314 313 312 311 309 307 306 305 306 306 305 305 304 304 304 304 304 304 303 303 303 302 301 301 301 301 301 301 301 301 301 301 300 300 300 301 300 299 298 297 296 294 293 292 291 291 290 289 288 288 287 286 285 285 284 284 284 283 283 283 282 282 282 283 283 284 284 283 283 282 282 282 282 282 282
331 330 327 323 320 318 317 317 316 316 315 315 314 313 313 311 309 309 308 308 308 308 308 307 307 306 306 306 307 307 307 307 307 306 306 305 305 304 304 303 303 303 303 303 303 304 304 305 305 305 304 302 301 300 299 298 297 296 295 294 294 293 292 292 291 290 289 289 288 288 287 286 286 285 285 285 285 286 285 285 284 283 283 283 283 283 283 282
328 327 323 322 321 320 319 319 317 315 314 312 312 312 311 311 310 310 311 311 311 310 309 308 308 307 308 308 308 308 308 307 307 307 306 306 306 306 306 307 307 307 307 306 306 306 307 309 308 307 306 305 304 303 302 302 301 300 299 298 297 297 296 295 294 293 292 292 291 290 289 288 288 287 287 287 287 287 286 285 285 284 284 284 284 283 283 283
322 321 320 321 321 319 318 315 313 312 311 311 311 312 311 311 311 312 312 312 312 311 310 309 309 309 309 309 309 309 308 308 307 307 307 307 308 308 309 309 310 311 311 310 309 309 310 311 310 310 310 308 307 306 305 304 303 302 301 300 299 298 297 296 295 294 294 293 292 291 290 289 289 289 288 288 288 287 286 286 285 285 285 284 284 284 283 283
316 317 318 317 316 314 312 311 310 310 311 312 312 312 312 312 313 313 313 313 313 312 311 311 311 311 310 310 310 310 310 310 310 311 312 312 313 314 315 316 316 317 317 317 316 315 315 316 315 314 313 312 310 309 307 306 305 303 302 301 300 299 297 296 295 294 294 294 293 292 291 290 290 290 289 289 288 287 287 286 286 285 285 284 284 284 283 283
312 314 314 313 312 311 309 309 310 311 312 312 312 312 312 313 313 314 314 313 313 313 312 312 311 311 311 311 311 312 313 313 314 315 316 317 318 319 320 320 320 320 320 319 319 317 316 317 316 315 314 312 310 309 307 306 305 304 303 302 301 299 298 296 295 294 294 293 293 292 292 291 291 291 291 290 289 288 287 287 286 286 285 285 285 285 285 285
310 310 310 311 310 309 308 309 311 312 313 312 312 313 313 313 314 314 314 314 313 312 312 311 312 312 313 314 315 315 316 317 318 320 321 322 323 323 323 323 322 322 321 320 319 317 315 315 315 314 313 311 310 309 308 306 305 304 303 302 301 300 299 298 296 295 294 294 293 293 292 292 292 292 291 291 290 289 289 288 288 287 287 287 287 286 286 286
307 307 309 309 309 308 308 310 311 312 312 312 312 313 313 314 314 315 314 314 313 313 313 313 314 315 315 316 317 318 320 321 322 324 324 324 324 324 324 323 322 321 320 319 319 318 316 315 314 314 313 312 311 310 309 308 307 305 304 303 302 301 300 299 298 297 296 295 294 294 293 293 293 292 292 291 291 290 290 290 289 289 288 288 288 288 287 287
304 306 308 308 306 307 308 310 311 311 311 312 313 313 314 314 315 315 315 314 314 314 315 316 317 318 319 320 321 323 324 325 325 326 326 325 324 324 323 322 321 320 320 320 319 318 317 316 316 316 315 313 312 311 310 309 308 307 306 305 304 303 302 300 299 298 297 297 296 295 295 294 294 293 293 292 292 291 291 291 290 290 290 289 289 288 288 288
304 305 305 305 305 307 309 310 310 311 311 312 313 314 315 315 316 316 315 315 316 318 319 320 321 322 324 325 326 327 327 327 327 327 326 325 324 324 323 322 322 321 321 321 320 319 318 317 316 317 316 314 313 311 310 310 309 308 307 306 305 304 303 302 301 300 299 298 297 297 296 296 295 294 294 293 293 292 292 291 291 291 290 290 289 289 288 288
303 303 303 305 306 308 309 310 310 311 312 313 314 315 316 316 316 316 317 318 319 321 322 323 325 326 327 328 328 329 329 328 326 326 326 325 325 325 324 324 323 323 322 321 320 319 318 317 316 315 315 313 312 311 311 310 309 308 308 307 306 305 304 303 302 301 300 299 299 298 297 297 296 295 294 294 293 293 292 292 291 291 290 290 289 289 288 288
302 302 304 306 308 309 310 310 311 312 313 315 316 317 317 317 317 318 319 320 322 323 325 326 327 327 328 329 329 328 327 326 325 326 326 326 326 326 326 325 324 323 322 321 320 319 318 317 316 316 315 314 313 312 312 311 311 310 309 308 307 306 305 304 303 303 302 301 300 300 299 298 297 296 295 295 294 293 293 292 291 291 290 289 289 289 289 288
302 303 306 307 309 309 310 310 312 314 316 317 318 318 318 318 319 320 321 323 325 326 327 328 328 329 329 329 327 326 326 326 327 328 329 328 328 327 326 324 323 322 321 321 320 319 319 318 318 318 318 317 315 314 314 313 312 311 310 309 308 307 306 305 304 304 303 302 301 300 299 298 297 296 296 295 294 294 293 292 292 291 291 290 290 290 290 290
303 306 308 309 309 310 311 313 315 317 318 319 319 319 319 320 320 322 324 326 327 328 328 330 330 330 329 328 327 328 329 330 331 331 330 329 328 326 325 324 323 322 322 321 321 321 321 321 320 319 319 318 316 315 314 313 312 311 310 309 308 307 306 306 305 304 303 302 301 301 300 299 298 297 297 296 295 294 294 293 293 292 292 292 292 292 291 291
305 308 309 309 310 311 314 316 318 319 319 319 320 320 320 321 322 325 327 328 329 330 331 331 330 328 328 328 329 330 331 332 332 331 330 328 327 326 325 324 324 323 323 323 324 323 323 322 321 321 320 318 317 316 315 314 313 312 311 310 309 308 307 306 305 304 303 302 302 301 301 300 299 299 298 297 296 296 295 295 295 294 294 294 293 293 292 292
307 309 309 310 312 314 317 318 319 319 320 320 320 320 321 323 326 328 329 330 332 332 331 329 328 327 328 329 330 331 332 332 331 331 330 329 328 327 326 326 326 326 326 326 326 325 324 323 322 321 320 318 317 316 315 314 313 312 311 310 309 308 308 307 306 305 304 303 303 302 301 301 300 300 299 298 298 297 297 296 296 296 295 294 294 293 293 293
309 309 310 312 315 317 319 319 320 320 321 321 321 322 325 328 329 330 331 333 334 331 328 327 327 328 329 331 332 333 333 333 332 331 330 330 329 328 328 328 329 329 329 328 327 326 325 324 322 321 320 318 317 316 315 313 313 312 311 310 309 309 308 307 306 305 304 304 303 303 302 301 301 301 300 299 299 298 298 297 296 296 296 295 295 295 295 295
310 310 312 315 318 319 320 320 321 321 321 322 323 326 329 329 330 332 333 334 332 328 326 327 329 330 332 333 334 334 334 333 333 332 331 331 330 330 331 331 332 331 330 329 328 327 325 324 323 322 320 319 318 317 316 315 314 313 312 311 310 309 308 307 306 306 305 305 304 304 303 303 302 302 301 300 300 299 299 299 298 298 298 298 298 298 297 297
311 312 315 318 320 320 321 322 322 322 322 324 327 329 330 330 332 334 334 331 328 327 327 328 330 332 334 335 335 335 334 333 333 332 332 332 332 333 334 333 333 332 331 329 328 327 326 325 323 322 321 319 319 318 317 316 315 314 313 312 311 310 309 308 307 307 307 306 305 304 304 303 303 302 302 302 301 301 301 301 301 301 300 300 300 299 299 299
313 316 319 320 321 322 322 322 322 322 324 327 330 330 331 334 335 334 331 328 327 327 328 330 332 334 335 335 335 334 334 333 333 333 333 334 335 335 335 334 333 332 331 330 329 328 326 325 323 322 321 320 319 318 318 317 316 315 314 312 311 311 310 309 309 308 308 307 306 305 305 304 304 304 304 304 303 303 303 303 302 302 301 301 301 300 300 300
316 319 321 322 322 323 323 322 323 325 328 330 332 333 334 336 334 331 328 327 327 328 330 332 333 335 335 335 334 334 334 334 333 334 335 336 336 335 335 334 333 332 331 330 329 328 326 325 324 322 321 320 320 319 318 318 317 316 315 314 313 312 311 310 310 310 310 309 308 308 308 307 307 307 306 306 305 305 304 304 304 304 303 303 303 302 302 302
319 321 322 323 323 323 322 323 325 329 332 333 334 335 336 335 331 328 327 327 328 329 331 334 335 335 335 335 334 334 334 334 335 336 336 337 336 336 335 334 333 332 331 330 329 328 327 326 324 323 322 321 321 320 319 319 318 317 316 316 315 314 313 312 312 312 313 312 311 311 311 310 310 309 308 308 307 307 307 307 307 306 305 305 305 305 305 305
322 323 323 323 323 323 323 325 329 332 333 335 336 337 335 332 329 327 327 328 330 332 333 334 335 335 335 335 335 335 335 336 337 338 337 337 337 336 335 334 334 333 332 331 330 329 328 327 325 324 323 322 322 321 321 321 320 319 318 317 316 316 315 314 314 315 315 314 313 313 313 312 311 310 310 310 310 310 309 308 308 307 306 306 306 306 306 306
323 323 323 323 323 323 326 329 332 334 335 337 337 336 332 328 327 327 328 329 332 333 334 334 334 334 335 336 336 337 337 338 338 338 338 338 337 336 336 335 334 333 332 332 331 330 329 327 326 325 324 324 323 323 323 322 322 320 319 319 319 319 318 317 317 317 317 316 315 314 313 312 312 311 311 311 310 309 308 307 307 307 307 307 307 307 308 308